TimePDT,TemperatureF,Dew PointF,Humidity,Sea Level PressureIn,VisibilityMPH,Wind Direction,Wind SpeedMPH,Gust SpeedMPH,PrecipitationIn,Events,Conditions,WindDirDegrees,DateUTC
12:53 AM,51.1,46.0,83,30.10,10.0,Calm,Calm,-,N/A,,Clear,0,2013-10-26 07:53:00
1:53 AM,50.0,45.0,83,30.11,10.0,Calm,Calm,-,N/A,,Clear,0,2013-10-26 08:53:00
2:53 AM,48.0,44.1,86,30.12,10.0,Calm,Calm,-,N/A,,Clear,0,2013-10-26 09:53:00
3:53 AM,48.0,44.1,86,30.12,10.0,Calm,Calm,-,N/A,,Clear,0,2013-10-26 10:53:00
4:53 AM,48.0,44.1,86,30.11,10.0,Calm,Calm,-,N/A,,Clear,0,2013-10-26 11:53:00
5:53 AM,46.0,43.0,89,30.11,7.0,Calm,Calm,-,N/A,,Clear,0,2013-10-26 12:53:00
6:53 AM,46.0,42.1,86,30.12,8.0,Calm,Calm,-,N/A,,Clear,0,2013-10-26 13:53:00
7:53 AM,46.0,43.0,89,30.13,8.0,Calm,Calm,-,N/A,,Clear,0,2013-10-26 14:53:00
8:53 AM,54.0,44.1,69,30.15,10.0,Calm,Calm,-,N/A,,Clear,0,2013-10-26 15:53:00
9:53 AM,61.0,42.1,50,30.15,10.0,Calm,Calm,-,N/A,,Clear,0,2013-10-26 16:53:00
10:53 AM,66.0,43.0,43,30.14,10.0,Calm,Calm,-,N/A,,Clear,0,2013-10-26 17:53:00
11:53 AM,70.0,46.0,42,30.13,10.0,Calm,Calm,-,N/A,,Clear,0,2013-10-26 18:53:00
12:53 PM,73.0,46.0,38,30.11,10.0,NW,4.6,-,N/A,,Clear,310,2013-10-26 19:53:00
1:53 PM,77.0,44.1,31,30.07,10.0,NNW,5.8,-,N/A,,Clear,340,2013-10-26 20:53:00
2:53 PM,79.0,42.1,27,30.05,10.0,NNW,6.9,-,N/A,,Clear,330,2013-10-26 21:53:00
3:53 PM,81.0,39.9,23,30.03,10.0,NNW,5.8,-,N/A,,Clear,330,2013-10-26 22:53:00
4:53 PM,79.0,39.9,25,30.01,10.0,NW,4.6,-,N/A,,Clear,320,2013-10-26 23:53:00
5:53 PM,73.0,45.0,37,30.00,10.0,Calm,Calm,-,N/A,,Clear,0,2013-10-27 00:53:00
6:53 PM,64.9,45.0,48,30.00,10.0,Calm,Calm,-,N/A,,Clear,0,2013-10-27 01:53:00
7:53 PM,60.1,46.0,60,30.00,10.0,Calm,Calm,-,N/A,,Clear,0,2013-10-27 02:53:00
8:53 PM,57.9,48.0,70,30.00,10.0,Calm,Calm,-,N/A,,Clear,0,2013-10-27 03:53:00
9:53 PM,55.0,46.9,74,30.00,10.0,Calm,Calm,-,N/A,,Clear,0,2013-10-27 04:53:00
10:53 PM,53.1,46.9,80,30.01,10.0,Calm,Calm,-,N/A,,Clear,0,2013-10-27 05:53:00
11:53 PM,52.0,46.0,80,29.99,10.0,Calm,Calm,-,N/A,,Clear,0,2013-10-27 06:53:00